FW4141 Weather Reports


time (UTC)temp
C
wind
direction
speed
KPH
gust
KPH
rain 1hr
cm
rain 24hr
cm
rain mn
cm
humidity
%
barometer
mb
20260510034043 3 0.0 0.0 0.00 0.00 0.00 92 1010.1
20260510033041 3 0.0 0.0 0.00 0.00 0.00 92 1010.1
20260510032035 3 0.0 0.0 0.00 0.00 0.00 92 1010.2
20260510031033 2 0.0 0.0 0.00 0.00 0.00 91 1010.3
20260510030031 2 0.0 0.0 0.00 0.00 0.00 91 1010.5
20260510025027 2 0.0 0.0 0.00 0.00 0.00 91 1010.4
20260510024021 2 0.0 0.0 0.00 0.00 0.00 91 1010.6
20260510022114 3 0.0 0.0 0.00 0.00 0.00 91 1010.9
20260510021111 3 0.0 0.0 0.00 0.00 0.00 91 1010.9
20260510020107 3 0.0 0.0 0.00 0.00 0.00 91 1011.0
20260510015107 3 0.0 0.0 0.00 0.00 0.00 90 1011.0
20260510014100 3 0.0 0.0 0.00 0.00 0.00 90 1011.0
20260510013128 3 0.0 0.0 0.00 0.00 0.00 90 1011.0
20260510012056 3 0.0 0.0 0.00 0.00 0.00 90 1011.0
20260510010052 3 0.0 0.0 0.00 0.00 0.00 90 1011.2
20260510005046 3 0.0 0.0 0.00 0.00 0.00 90 1011.2
20260510004041 3 0.0 0.0 0.00 0.00 0.00 90 1011.3
20260510003038 3 0.0 0.0 0.00 0.00 0.00 90 1011.4
20260510002032 4 0.0 0.0 0.00 0.00 0.00 90 1011.6
20260510001117 4 0.0 0.0 0.00 0.00 0.00 89 1011.5
20260510000028 4 0.0 0.0 0.00 0.00 0.00 89 1011.7
20260509235023 4 0.0 0.0 0.00 0.00 0.00 89 1011.7
20260509234056 4 0.0 0.0 0.00 0.00 0.00 88 1011.7
20260509233115 5 0.0 0.0 0.00 0.00 0.00 88 1011.9
20260509232113 5 0.0 0.0 0.00 0.00 0.00 88 1012.0
20260509231111 5 0.0 0.0 0.00 0.00 0.00 87 1012.1
20260509230106 5 0.0 0.0 0.00 0.00 0.00 87 1012.1
20260509224058 5 0.0 0.0 0.00 0.00 0.00 86 1012.3
20260509223116 5 0.0 0.0 0.00 0.00 0.00 86 1012.2
20260509222053 5 0.0 0.0 0.00 0.00 0.00 85 1012.2
20260509221057 5 0.0 0.0 0.00 0.00 0.00 85 1012.3
20260509220057 6 0.0 0.0 0.00 0.00 0.00 84 1012.3
20260509214132 6 0.0 0.0 0.00 0.00 0.00 83 1012.3
20260509213101 6 0.0 0.0 0.00 0.00 0.00 82 1012.4
20260509212042 6 0.0 0.0 0.00 0.00 0.00 82 1012.5
20260509211104 7 0.0 0.0 0.00 0.00 0.00 82 1012.5
20260509203146 8 0.0 0.0 0.00 0.00 0.00 75 1012.7
20260509202135 8 0.0 0.0 0.00 0.00 0.00 74 1012.6
20260509200114 9 0.0 0.0 0.00 0.00 0.00 73 1012.5
20260509195206 9 0.0 0.0 0.00 0.00 0.00 72 1012.5
20260509194055 10 0.0 0.0 0.00 0.00 0.00 71 1012.6
20260509193104 10 0.0 0.0 0.00 0.00 0.00 70 1012.6
20260509192118 10 0.0 0.0 0.00 0.00 0.00 69 1012.7
20260509191103 11 0.0 0.0 0.00 0.00 0.00 66 1012.5
20260509190108 11 0.0 0.0 0.00 0.00 0.00 65 1012.6
20260509185042 12 0.0 0.0 0.00 0.00 0.00 62 1012.6
20260509184039 13 0.0 0.0 0.00 0.00 0.00 58 1012.4
20260509183035 13 0.0 0.0 0.00 0.00 0.00 55 1012.5
20260509182030 15 0.0 0.0 0.00 0.00 0.00 52 1012.4
20260509181032 16 0.0 0.0 0.00 0.00 0.00 50 1012.5
20260509180040 17 0.0 0.0 0.00 0.00 0.00 49 1012.4
20260509175115 17 0.0 0.0 0.00 0.00 0.00 43 1012.4
20260509174113 17 0.0 0.0 0.00 0.00 0.00 43 1012.5
20260509173108 17 0.0 0.0 0.00 0.00 0.00 42 1012.3
20260509172127 17 0.0 0.0 0.00 0.00 0.00 42 1012.4
20260509171100 17 0.0 0.0 0.00 0.00 0.00 42 1012.4
20260509170118 17 0.0 0.0 0.00 0.00 0.00 47 1012.4
20260509165116 17 0.0 0.0 0.00 0.00 0.00 44 1012.4
20260509164115 19 0.0 0.0 0.00 0.00 0.00 37 1012.4
20260509163124 19 0.0 0.0 0.00 0.00 0.00 38 1012.4
20260509162043 18 0.0 0.0 0.00 0.00 0.00 38 1012.4
20260509161103 18 0.0 0.0 0.00 0.00 0.00 39 1012.5
20260509160043 18 0.0 0.0 0.00 0.00 0.00 42 1012.6
20260509155039 16 0.0 0.0 0.00 0.00 0.00 46 1012.7
20260509154027 17 0.0 0.0 0.00 0.00 0.00 44 1012.6
20260509153022 18 0.0 0.0 0.00 0.00 0.00 38 1012.5
20260509152020 20 0.0 0.0 0.00 0.00 0.00 39 1012.5
20260509151116 19 0.0 0.0 0.00 0.00 0.00 41 1012.6
20260509150112 17 0.0 0.0 0.00 0.00 0.00 47 1012.6
20260509145130 16 0.0 0.0 0.00 0.00 0.00 47 1012.7
20260509144111 16 0.0 0.0 0.00 0.00 0.00 45 1012.8
20260509143101 17 0.0 0.0 0.00 0.00 0.00 43 1012.8
20260509142058 17 0.0 0.0 0.00 0.00 0.00 40 1012.8
20260509141055 18 0.0 0.0 0.00 0.00 0.00 40 1012.7
20260509140049 18 0.0 0.0 0.00 0.00 0.00 40 1012.8
20260509135046 18 0.0 0.0 0.00 0.00 0.00 40 1012.8
20260509134059 17 0.0 0.0 0.00 0.00 0.00 43 1012.9
20260509133042 17 0.0 0.0 0.00 0.00 0.00 45 1012.9
20260509131105 16 0.0 0.0 0.00 0.00 0.00 46 1013.1
20260509130101 17 0.0 0.0 0.00 0.00 0.00 45 1013.1
20260509121156 17 0.0 0.0 0.00 0.00 0.00 44 1013.1
20260509120145 17 0.0 0.0 0.00 0.00 0.00 45 1013.2
20260509115124 17 0.0 0.0 0.00 0.00 0.00 41 1013.3
20260509110053 16 0.0 0.0 0.00 0.00 0.00 50 1013.4
20260509092139 17 0.0 0.0 0.00 0.00 0.00 47 1013.3
20260509091116 16 0.0 0.0 0.00 0.00 0.00 51 1013.3
20260509090129 15 0.0 0.0 0.00 0.00 0.00 54 1013.4
20260509080039 15 0.0 0.0 0.00 0.00 0.00 54 1013.2
20260509075035 15 0.0 0.0 0.00 0.00 0.00 56 1013.3
20260509074117 15 0.0 0.0 0.00 0.00 0.00 55 1013.2
20260509072027 15 0.0 0.0 0.00 0.00 0.00 60 1013.3
20260509055102 10 0.0 0.0 0.00 0.00 0.00 80 1012.9
20260509054049 10 0.0 0.0 0.00 0.00 0.00 88 1012.9
20260509053045 10 0.0 0.0 0.00 0.00 0.00 93 1012.9
20260509052040 8 0.0 0.0 0.00 0.00 0.00 94 1012.9
20260509051037 6 0.0 0.0 0.00 0.00 0.00 97 1013.1
20260509050056 5 0.0 0.0 0.00 0.00 0.00 96 1013.1
20260509045032 5 0.0 0.0 0.00 0.00 0.00 96 1013.0
20260509044027 5 0.0 0.0 0.00 0.00 0.00 95 1013.0
20260509043025 3 0.0 0.0 0.00 0.00 0.00 94 1012.9
20260509042040 2 0.0 0.0 0.00 0.00 0.00 94 1012.9
20260509041017 2 0.0 0.0 0.00 0.00 0.00 93 1012.9
20260509040113 2 0.0 0.0 0.00 0.00 0.00 93 1012.8
20260509035109 2 0.0 0.0 0.00 0.00 0.00 93 1012.7